Temperature
27 28 28 29 29 30 29 29 29 29 29 29 29 29 28 27 26 26 25 25 24 23 22 21 20 20 19 19 19 19 18 19 18 18 17 17 17 17 17 17 17 17 17 17
27 28 29 29 29 28 28 28 29 29 29 28 28 28 28 27 27 26 25 25 24 23 22 21 20 20 19 19 19 18 18 18 18 18 18 17 17 17 17 17 17 17 17 16
28 28 28 28 28 28 28 29 29 29 28 28 28 28 27 27 26 26 25 25 24 23 22 21 20 20 20 19 19 18 18 18 18 18 17 17 17 17 17 17 17 17 16 16
28 28 28 27 28 28 28 29 29 28 28 29 28 28 28 27 27 26 25 25 24 23 22 21 21 20 20 20 19 18 18 18 18 18 17 17 17 17 17 17 17 16 16 16
27 28 27 27 28 28 28 29 28 28 28 28 28 28 28 27 26 26 25 25 24 23 22 21 21 20 20 20 19 18 18 18 18 18 17 17 17 17 17 17 17 16 16 16
28 28 28 28 28 28 28 28 28 28 29 27 28 28 28 28 27 26 26 24 23 23 22 21 21 20 20 19 19 18 18 18 18 17 17 17 17 17 17 17 17 16 16 16
27 27 28 28 28 28 28 27 27 27 27 28 28 27 27 27 27 26 26 24 23 22 22 21 20 20 20 19 19 18 18 18 18 17 17 17 17 17 17 16 17 16 16 16
26 27 27 27 28 28 28 28 27 27 27 28 27 27 27 27 26 25 24 24 23 22 22 21 20 20 19 19 19 18 18 18 17 17 17 17 17 17 16 16 16 16 16 16
27 27 28 27 28 28 28 28 29 28 28 27 27 27 27 26 25 25 24 24 23 22 21 21 20 19 19 19 18 18 18 17 17 17 17 17 17 16 16 16 16 16 16 16
27 26 27 27 27 27 28 28 28 27 26 26 27 27 27 26 26 25 25 24 23 22 21 20 19 19 18 18 18 18 17 17 17 17 17 17 16 16 16 16 16 16 16 16
27 26 26 27 26 27 27 27 27 28 27 27 26 27 27 26 26 25 25 23 22 21 21 20 19 19 18 18 18 18 17 17 17 17 17 16 16 16 16 16 16 16 16 16
26 26 26 26 27 27 27 27 27 26 26 26 27 26 26 25 25 24 24 22 22 21 20 20 19 19 18 18 18 17 17 17 17 16 16 16 16 16 16 16 16 15 15 15
25 25 24 25 26 26 26 26 27 26 26 26 26 26 25 24 24 23 22 22 21 20 20 19 19 18 18 18 17 17 17 16 16 16 16 16 16 16 16 16 16 15 15 15
25 25 25 25 26 26 26 26 26 26 26 26 26 25 25 24 24 23 22 21 20 20 19 19 18 18 18 17 17 17 16 16 16 16 16 16 16 15 15 15 15 15 15 15
24 24 25 25 26 26 26 26 26 25 26 26 26 25 25 24 23 22 21 21 20 20 19 18 18 17 17 17 17 16 16 16 16 16 15 15 15 15 15 15 15 15 15 15
23 24 24 24 25 25 25 25 25 25 25 25 25 24 24 23 22 21 21 20 20 19 19 18 18 17 17 16 16 16 16 15 15 15 15 15 15 15 15 15 15 15 14 14
23 23 23 24 24 24 24 24 24 24 24 24 24 24 23 22 22 21 20 20 19 19 18 18 17 17 17 16 16 15 15 15 15 15 15 14 14 14 14 14 14 14 14 14
22 22 23 24 23 22 24 24 24 24 24 24 23 23 23 22 21 20 19 19 19 18 18 17 17 16 16 16 15 15 15 15 15 14 14 14 14 14 14 14 14 14 14 14
22 22 23 23 23 23 23 23 23 23 23 23 23 22 21 21 20 20 18 18 18 17 17 16 16 16 15 15 15 15 15 15 14 14 14 14 13 13 13 13 13 13 13 13
21 22 23 23 22 22 22 23 22 22 22 22 22 21 21 20 22 21 18 17 17 17 16 16 16 15 15 15 15 15 14 14 14 14 14 14 13 13 13 13 13 13 13 13
21 21 22 22 22 22 22 21 21 21 21 20 20 20 20 20 20 18 17 16 16 16 16 15 15 15 15 14 14 14 14 14 14 13 13 13 13 13 13 13 13 12 12 12
21 22 21 22 21 21 21 21 21 20 19 19 19 19 19 18 17 17 16 16 15 15 15 15 15 14 14 14 14 14 13 13 13 13 13 13 13 12 12 12 12 12 12 12
21 21 22 21 21 19 19 19 18 18 18 18 18 18 18 17 17 17 16 16 15 15 15 14 14 14 14 13 13 13 13 13 13 13 12 12 12 12 12 12 12 11 11 12
20 19 20 20 20 19 18 18 18 17 17 17 17 17 17 17 17 16 16 15 15 14 14 14 14 14 13 13 13 12 12 12 12 12 12 12 12 12 11 11 11 11 11 12
19 19 19 19 19 19 18 18 17 17 17 17 17 17 17 16 16 16 15 15 14 14 13 13 13 13 13 13 12 12 12 12 12 12 12 11 11 11 11 11 11 11 11 11
19 19 19 19 19 19 18 17 16 16 16 16 16 16 16 16 16 15 15 14 14 13 13 13 13 13 13 12 12 12 12 12 12 11 11 11 11 11 11 11 11 11 11 11
Wind_Speed
8 10 11 9 9 7 6 8 9 5 3 6 7 7 5 7 8 8 8 8 7 7 7 6 6 7 7 7 7 7 6 6 4 4 3 3 3 2 1 1 1 1 2 2
9 11 8 6 7 8 8 9 8 5 3 5 6 5 4 6 8 8 8 7 7 7 7 6 7 7 8 8 8 7 7 6 5 3 2 2 2 2 1 1 1 2 2 2
12 4 5 7 9 10 10 10 8 6 4 6 6 7 6 6 7 7 8 7 7 7 7 7 7 7 8 8 8 7 6 6 5 4 3 3 3 3 2 2 2 1 2 2
9 6 6 9 9 10 10 8 7 7 8 6 7 7 5 6 6 7 8 8 8 7 7 7 7 7 7 7 7 7 6 6 5 4 3 3 3 2 2 2 1 1 2 2
8 7 9 10 9 9 7 5 7 9 9 8 8 8 4 7 6 6 7 8 8 7 7 7 7 7 7 7 7 7 7 6 5 4 4 4 3 2 1 2 1 2 1 2
8 5 6 7 6 7 5 5 6 9 10 11 8 9 5 4 5 5 6 6 6 7 7 7 6 6 5 5 6 6 7 6 5 5 4 4 3 3 2 2 2 2 2 2
9 9 7 6 7 8 9 9 7 9 9 8 5 7 3 1 2 3 5 6 6 6 6 6 7 6 6 6 5 5 6 6 6 5 4 4 3 3 3 3 2 3 2 2
9 9 9 8 9 7 10 12 9 7 7 5 5 6 2 3 2 2 3 4 5 7 6 6 6 6 6 6 5 5 5 5 5 4 4 3 4 3 3 3 3 2 2 2
6 6 6 6 7 9 10 11 8 9 8 7 5 3 3 4 4 3 3 4 5 6 7 6 6 6 6 5 5 4 4 4 4 4 3 3 3 3 3 3 3 2 2 1
4 5 5 5 7 6 7 7 7 9 8 8 6 6 4 4 4 4 3 3 4 6 7 6 6 6 6 5 5 4 4 4 4 3 3 3 3 3 3 3 2 2 2 1
6 6 6 7 7 8 8 8 8 8 8 8 7 3 2 2 2 2 3 3 4 6 7 7 6 5 5 5 5 4 3 3 3 2 2 2 2 3 3 3 3 2 2 1
6 5 6 6 3 3 6 7 8 8 7 8 8 2 5 3 2 2 2 3 4 6 7 7 6 6 5 4 4 4 3 2 2 2 2 1 1 2 2 2 2 2 2 2
6 5 7 8 8 7 6 6 7 7 7 8 9 3 5 3 2 2 2 4 5 6 7 7 6 5 4 4 3 3 3 2 1 1 2 1 1 1 1 2 2 2 2 2
5 6 8 8 4 5 7 8 8 10 9 9 8 5 3 2 1 2 3 4 5 6 7 6 6 4 4 4 3 3 2 2 1 1 1 1 2 1 1 1 1 2 2 2
4 7 8 7 6 6 7 8 8 10 10 10 7 5 3 2 2 2 3 5 6 6 6 6 5 4 4 3 3 3 2 1 1 1 1 1 1 1 1 1 1 1 2 2
3 6 7 7 6 7 7 7 8 9 9 9 7 6 2 1 2 3 4 5 5 5 6 5 4 4 3 3 2 2 1 1 0 0 1 1 1 1 1 2 2 2 2 2
5 6 7 8 6 8 9 7 8 7 6 7 8 4 2 3 3 4 4 5 5 4 4 4 4 4 3 2 2 1 1 1 0 0 1 1 1 1 1 2 2 2 2 2
5 7 7 6 7 10 2 1 3 6 5 5 4 2 3 3 3 3 3 4 4 4 3 3 3 3 3 2 2 1 1 1 0 0 1 1 1 1 1 1 1 2 2 2
5 6 6 7 9 7 4 2 3 5 4 2 3 2 3 3 4 4 2 2 3 3 3 2 2 3 3 2 2 1 1 1 0 0 1 1 2 2 2 2 1 1 2 1
5 7 8 8 9 7 2 1 2 5 6 2 3 3 4 5 5 3 3 2 3 3 3 3 2 2 2 1 1 1 1 1 1 1 2 2 2 2 2 2 1 1 1 1
7 7 10 10 9 4 2 1 3 6 0 2 1 2 4 4 1 4 4 3 3 3 3 3 3 2 1 1 1 1 1 1 1 2 1 2 2 2 2 2 1 1 1 1
6 6 7 7 9 4 2 2 2 2 3 1 1 2 3 2 3 4 4 4 3 4 3 3 2 1 1 1 2 2 1 2 2 2 1 2 2 2 1 2 2 2 2 2
4 4 3 3 1 4 2 1 1 1 1 1 1 1 3 3 3 4 3 3 2 3 3 2 2 1 1 1 2 2 2 2 2 2 2 2 2 2 2 2 2 2 2 2
3 1 3 3 2 1 1 1 1 1 1 1 0 2 3 3 2 2 2 2 2 1 2 2 2 1 0 1 2 2 2 2 2 2 2 2 2 2 1 2 2 3 3 3
3 4 4 5 3 2 2 1 1 1 1 0 1 2 2 2 2 2 2 2 2 2 2 2 2 2 1 1 2 2 2 2 2 3 3 3 2 1 1 2 2 3 3 3
5 5 6 4 2 3 1 1 1 1 2 1 1 1 2 2 2 2 2 2 2 3 3 3 3 3 2 2 2 2 2 3 3 3 3 3 2 2 2 2 2 1 2 0
Wind_Direction
197 217 218 218 227 252 242 238 235 224 208 236 240 244 214 194 196 196 189 185 180 173 164 166 174 176 172 173 175 179 180 171 185 194 205 205 206 212 211 226 271 270 274 270
202 220 224 228 224 233 233 234 234 215 207 241 238 244 224 201 204 200 196 193 187 175 171 174 175 178 181 180 181 181 181 178 190 188 207 220 236 229 217 240 249 273 272 270
219 206 203 216 213 222 231 239 239 231 212 222 231 230 210 196 203 202 202 200 195 186 179 176 177 180 183 184 187 187 185 184 192 194 203 201 204 222 213 219 221 256 266 261
224 211 203 215 217 227 231 234 242 234 231 223 228 251 197 186 195 200 204 203 198 192 188 182 179 180 185 187 183 184 184 187 189 198 210 218 227 237 245 249 238 241 247 265
212 212 217 223 225 230 239 236 235 236 240 247 228 255 208 179 205 203 202 204 198 190 186 182 180 180 182 183 181 181 182 186 189 200 205 224 240 246 250 255 259 267 247 263
228 211 231 233 225 220 211 209 220 231 236 241 236 248 239 201 214 207 194 193 192 191 187 181 173 167 169 174 178 176 174 181 188 202 210 226 244 257 265 268 267 253 250 255
216 211 208 219 208 195 210 223 222 220 224 235 207 240 241 173 197 213 198 189 184 180 176 174 174 174 170 168 167 168 170 180 189 197 210 224 237 243 245 260 255 268 270 261
211 206 198 207 223 214 217 232 242 248 246 233 192 233 193 134 145 173 182 181 177 175 170 168 168 168 164 163 166 173 177 183 185 190 203 218 233 249 252 257 269 263 274 282
216 208 177 200 220 232 216 230 250 261 261 256 222 215 196 183 200 191 175 166 167 172 169 162 157 158 157 158 163 172 174 185 193 197 202 212 229 247 258 253 248 254 265 261
240 222 190 185 200 218 245 227 229 242 247 251 231 227 219 193 199 183 171 158 154 161 161 156 152 155 156 155 156 157 168 181 191 196 210 212 222 232 247 256 258 260 270 279
236 229 195 190 213 209 202 213 234 245 257 259 252 231 100 175 169 164 157 145 155 159 160 156 156 156 155 153 151 153 158 170 179 188 198 216 222 225 233 245 253 248 258 251
217 235 222 207 194 255 230 230 229 240 243 251 267 257 97 105 108 135 139 131 137 151 155 152 152 151 152 151 146 143 149 163 173 177 182 190 212 226 234 239 249 239 235 232
192 215 221 205 195 198 217 226 234 244 252 251 255 233 116 113 123 126 139 141 137 143 144 141 140 141 140 138 139 143 152 146 149 170 180 182 217 223 242 249 238 222 217 221
211 227 242 245 242 216 217 223 229 238 245 250 252 250 200 187 181 150 149 156 153 151 150 147 141 136 134 132 131 135 131 125 130 162 189 199 225 232 232 242 235 210 200 202
221 228 231 249 256 245 239 235 231 237 254 263 260 250 241 226 214 180 163 162 157 155 153 150 144 140 140 136 134 124 113 110 122 157 202 220 220 229 225 230 228 214 205 197
220 235 226 234 236 234 242 244 240 243 252 252 254 257 253 228 196 181 170 166 165 160 158 153 149 150 152 150 145 125 122 117 135 204 246 255 220 221 223 218 208 197 202 202
211 219 230 231 227 236 237 242 239 234 244 247 251 255 204 200 193 185 179 174 174 172 168 165 164 165 170 171 164 161 164 119 97 309 290 282 255 224 228 221 202 199 201 198
228 230 234 232 223 238 215 39 254 237 245 256 246 224 213 204 175 158 172 180 175 175 171 171 170 168 172 173 170 179 180 162 187 295 334 329 294 249 232 223 211 207 207 208
224 228 235 235 234 235 197 200 242 242 239 250 230 205 180 161 168 164 155 163 161 160 153 165 177 168 169 171 173 185 194 205 236 315 331 304 293 264 246 236 234 218 212 211
200 226 235 234 244 243 208 149 253 243 230 168 206 205 186 188 215 166 140 143 140 136 140 155 166 162 158 163 170 187 216 234 286 306 315 310 287 266 250 252 243 233 231 224
199 212 229 235 242 242 90 129 210 234 218 88 214 210 196 202 336 108 136 138 134 134 137 149 153 150 153 162 182 208 227 277 296 301 313 301 285 265 243 231 228 231 236 238
225 221 222 231 238 234 103 173 227 350 31 9 243 193 191 139 105 123 127 123 120 125 127 133 135 127 140 179 212 226 251 291 297 288 292 292 286 279 241 217 222 223 230 231
237 265 255 246 260 70 101 86 37 16 351 316 253 181 171 157 154 140 131 128 128 125 125 131 135 130 143 204 239 251 268 276 270 273 278 278 276 274 259 230 224 223 227 244
212 247 235 228 188 134 126 52 23 2 338 315 178 157 168 171 167 163 154 148 153 164 171 172 173 173 217 295 269 266 270 257 249 258 267 266 260 262 260 257 247 244 241 243
234 216 230 229 212 191 182 5 346 349 344 1 143 158 171 177 186 186 181 187 206 216 223 229 224 219 233 260 280 278 253 237 244 254 255 252 248 250 274 278 280 271 276 284
232 233 238 240 227 234 231 342 330 298 282 256 212 182 173 180 195 215 222 227 235 239 240 241 243 243 244 243 249 252 242 232 234 240 243 250 251 243 248 261 282 305 282 49
Height
1499 1497 1493 1490 1490 1489 1491 1493 1494 1492 1492 1495 1495 1495 1496 1500 1503 1505 1507 1509 1512 1515 1518 1519 1521 1522 1523 1524 1525 1526 1528 1528 1529 1531 1531 1532 1532 1532 1532 1531 1530 1530 1529 1529
1496 1493 1489 1489 1491 1493 1493 1495 1493 1492 1493 1494 1494 1495 1495 1499 1501 1504 1506 1508 1511 1514 1516 1518 1520 1521 1522 1523 1524 1525 1526 1527 1528 1529 1530 1530 1531 1531 1530 1530 1529 1529 1528 1528
1489 1488 1489 1492 1493 1495 1493 1492 1491 1492 1493 1492 1494 1496 1495 1497 1500 1503 1505 1507 1509 1512 1514 1516 1518 1520 1521 1522 1523 1525 1525 1526 1527 1528 1529 1529 1529 1529 1530 1529 1528 1528 1527 1527
1487 1487 1490 1491 1491 1491 1493 1487 1489 1491 1494 1491 1493 1498 1493 1493 1496 1499 1503 1505 1507 1510 1513 1515 1517 1518 1519 1521 1522 1523 1524 1525 1526 1527 1528 1528 1528 1528 1528 1528 1527 1527 1526 1526
1486 1486 1488 1490 1488 1488 1487 1486 1488 1489 1490 1491 1489 1495 1491 1491 1495 1496 1499 1502 1505 1508 1511 1513 1515 1516 1518 1519 1521 1522 1523 1523 1524 1525 1526 1526 1527 1527 1527 1527 1526 1525 1525 1525
1482 1485 1486 1485 1485 1487 1487 1489 1489 1488 1486 1499 1490 1494 1493 1486 1491 1493 1497 1501 1504 1507 1509 1511 1513 1515 1517 1518 1520 1521 1521 1522 1523 1524 1524 1525 1525 1525 1526 1525 1525 1525 1524 1524
1485 1483 1484 1485 1486 1487 1488 1491 1496 1498 1497 1494 1486 1492 1491 1486 1489 1492 1495 1499 1502 1505 1508 1510 1512 1513 1515 1517 1518 1519 1519 1520 1521 1522 1523 1523 1523 1524 1524 1524 1523 1523 1523 1522
1486 1485 1481 1483 1483 1484 1484 1485 1495 1503 1497 1488 1489 1491 1486 1486 1490 1493 1496 1498 1501 1504 1506 1508 1510 1512 1514 1515 1516 1518 1518 1519 1520 1520 1521 1521 1521 1522 1522 1522 1522 1521 1521 1521
1480 1483 1478 1480 1481 1480 1482 1481 1476 1485 1486 1491 1487 1486 1486 1487 1490 1492 1494 1497 1499 1502 1505 1507 1509 1511 1513 1514 1515 1516 1517 1517 1518 1519 1519 1519 1519 1520 1520 1519 1519 1519 1519 1519
1476 1484 1478 1480 1480 1481 1477 1477 1482 1485 1497 1499 1491 1488 1484 1486 1486 1489 1492 1495 1498 1501 1503 1506 1508 1510 1511 1513 1514 1515 1515 1516 1517 1517 1517 1518 1517 1517 1517 1517 1517 1516 1517 1517
1476 1483 1481 1479 1481 1478 1482 1482 1481 1480 1481 1492 1496 1489 1478 1483 1485 1488 1491 1494 1497 1499 1502 1504 1507 1509 1511 1512 1513 1514 1514 1515 1516 1516 1515 1515 1515 1515 1515 1515 1515 1514 1515 1515
1478 1479 1481 1478 1476 1477 1476 1477 1480 1488 1489 1485 1486 1491 1481 1484 1487 1489 1492 1495 1497 1499 1501 1504 1506 1508 1509 1511 1512 1513 1514 1514 1514 1514 1514 1514 1514 1513 1513 1513 1512 1512 1513 1513
1479 1483 1488 1485 1484 1480 1479 1478 1478 1479 1483 1483 1487 1490 1483 1486 1488 1490 1493 1495 1497 1499 1501 1503 1505 1507 1508 1510 1511 1512 1513 1513 1513 1513 1513 1513 1512 1512 1511 1511 1510 1510 1511 1511
1480 1479 1482 1485 1478 1474 1478 1478 1477 1479 1480 1481 1481 1483 1483 1485 1487 1490 1493 1495 1497 1499 1501 1503 1505 1506 1508 1509 1510 1511 1512 1512 1512 1511 1511 1511 1511 1510 1509 1509 1509 1508 1509 1509
1478 1478 1476 1474 1472 1473 1474 1476 1477 1478 1477 1478 1477 1480 1482 1484 1488 1490 1493 1495 1497 1499 1501 1503 1504 1506 1507 1508 1509 1509 1509 1510 1510 1509 1509 1509 1509 1508 1508 1507 1507 1507 1507 1507
1479 1479 1477 1478 1474 1473 1475 1474 1475 1476 1476 1476 1478 1481 1481 1486 1488 1490 1492 1494 1496 1498 1500 1502 1503 1504 1506 1506 1507 1507 1507 1507 1508 1508 1508 1507 1507 1507 1506 1505 1505 1505 1505 1505
1477 1479 1481 1478 1475 1475 1480 1476 1475 1476 1476 1477 1480 1481 1483 1486 1488 1490 1492 1493 1495 1497 1499 1501 1502 1503 1504 1505 1505 1506 1506 1506 1506 1506 1506 1505 1505 1505 1504 1504 1504 1503 1503 1503
1478 1478 1476 1475 1481 1490 1478 1474 1474 1475 1476 1477 1479 1481 1483 1485 1488 1490 1492 1493 1494 1497 1498 1499 1501 1502 1503 1503 1504 1504 1505 1504 1504 1504 1504 1503 1503 1503 1502 1502 1502 1502 1501 1501
1478 1478 1476 1476 1479 1478 1476 1476 1477 1479 1479 1479 1480 1482 1484 1486 1488 1490 1492 1493 1494 1496 1497 1498 1500 1500 1501 1501 1502 1502 1503 1503 1503 1503 1502 1502 1502 1501 1500 1500 1500 1500 1499 1499
1477 1476 1476 1476 1481 1484 1478 1475 1478 1480 1481 1480 1481 1482 1484 1486 1484 1486 1491 1492 1493 1494 1496 1497 1498 1499 1499 1500 1500 1500 1501 1501 1501 1501 1500 1500 1499 1499 1499 1498 1498 1498 1497 1497
1476 1476 1475 1476 1479 1474 1475 1477 1479 1484 1482 1482 1482 1483 1484 1485 1485 1488 1490 1491 1492 1493 1494 1496 1497 1497 1498 1498 1498 1499 1499 1499 1499 1499 1498 1498 1497 1497 1497 1496 1496 1496 1495 1495
1472 1473 1475 1474 1479 1480 1477 1477 1479 1481 1482 1483 1483 1484 1485 1486 1488 1489 1490 1491 1492 1493 1494 1495 1496 1496 1496 1496 1497 1496 1496 1497 1497 1496 1496 1496 1495 1495 1495 1494 1494 1493 1493 1493
1472 1472 1469 1473 1476 1479 1480 1480 1482 1483 1483 1483 1484 1484 1485 1486 1488 1489 1490 1491 1492 1493 1494 1494 1494 1494 1494 1495 1495 1495 1495 1495 1494 1494 1494 1493 1493 1493 1493 1492 1492 1492 1491 1492
1474 1477 1475 1475 1476 1479 1481 1482 1482 1483 1483 1483 1484 1484 1485 1486 1487 1488 1490 1491 1491 1492 1492 1493 1493 1493 1493 1492 1493 1493 1492 1492 1492 1492 1492 1491 1491 1491 1490 1490 1490 1490 1490 1489
1473 1475 1474 1475 1477 1479 1480 1481 1482 1483 1483 1482 1483 1484 1485 1486 1487 1487 1488 1489 1490 1490 1491 1491 1491 1491 1490 1490 1490 1490 1490 1490 1490 1490 1490 1489 1489 1488 1488 1488 1488 1488 1487 1487
1473 1474 1474 1473 1477 1478 1479 1480 1481 1482 1482 1482 1482 1483 1484 1485 1485 1486 1487 1488 1488 1488 1488 1489 1489 1489 1488 1488 1488 1488 1487 1487 1487 1487 1487 1487 1487 1486 1486 1486 1485 1484 1484 1484